Staples, MN

4:05 AM CDT on April 20, 2018 (GMT -0500)
Staples Municipal

Weather History for KSAZ - January, 2014

Change the Weather History Date:

Sunday, January 19, 2014

  Actual Average Record
Temperature  
Mean Temperature 22 °F -  
Max Temperature 28 °F 16 °F 42 °F (2017)
Min Temperature 17 °F 0 °F -23 °F (2012)
Degree Days  
Heating Degree Days 42    
Moisture  
Dew Point 21 °F    
Average Humidity 88    
Maximum Humidity 100    
Minimum Humidity 80    
Precipitation  
Precipitation 0.07 in - - ()
Sea Level Pressure  
Sea Level Pressure 29.52 in    
Wind  
Wind Speed 9 mph (WNW)    
Max Wind Speed 17 mph    
Max Gust Speed 23 mph    
Visibility 10 miles    
Events Snow    
Averages and records for this station are not official NWS values.
T = Trace of Precipitation, MM = Missing Value Source: NWS Daily Summary

Daily Weather History Graph

Daily Weather History Graph

Search for Another Location

Airport or City:

Astronomy

Jan. 19, 2014 Rise Set
Actual Time 7:55 AM CST 5:04 PM CST
Civil Twilight 7:22 AM CST 5:38 PM CST
Nautical Twilight 6:45 AM CST 6:15 PM CST
Astronomical Twilight 6:09 AM CST 6:51 PM CST
Moon 8:59 PM CST (1/19) 9:12 AM CST (1/19)
Length of Visible Light 10h 16m
Length of Day
9h 09m
Waning Gibbous, 89% of the Moon is Illuminated
Jan 19
Waning Gibbous
Jan 23
Last Quarter
Jan 30
New
Feb 6
First Quarter
Feb 14
Full

Hourly Weather History & Observations

Time (CST) Temp. Windchill Dew Point Humidity Pressure Visibility Wind Dir Wind Speed Gust Speed Precip Events Conditions
12:14 AM 23.0 °F 13.1 °F 19.4 °F 86% 29.53 in 10.0 mi SW 9.2 mph - N/A   Clear
12:33 AM 23.0 °F 13.1 °F 21.2 °F 93% 29.52 in 10.0 mi SW 9.2 mph - N/A   Clear
12:53 AM 24.8 °F 16.1 °F 21.2 °F 86% 29.52 in 10.0 mi SW 8.1 mph - N/A   Clear
1:14 AM 24.8 °F 17.9 °F 21.2 °F 86% 29.51 in 10.0 mi SW 5.8 mph - N/A   Clear
1:33 AM 24.8 °F 16.9 °F 21.2 °F 86% 29.49 in 10.0 mi WSW 6.9 mph - N/A   Clear
1:53 AM 26.6 °F 17.5 °F 21.2 °F 80% 29.48 in 10.0 mi WSW 9.2 mph - N/A   Clear
2:14 AM 28.4 °F 16.2 °F 23.0 °F 80% 29.48 in 10.0 mi West 17.3 mph 23.0 mph N/A   Clear
2:33 AM 28.4 °F 17.5 °F 23.0 °F 80% 29.48 in 10.0 mi West 13.8 mph 20.7 mph N/A   Clear
2:53 AM 28.4 °F 16.2 °F 23.0 °F 80% 29.49 in 10.0 mi West 17.3 mph 21.9 mph N/A   Clear
3:14 AM 26.6 °F 14.7 °F 23.0 °F 86% 29.49 in 10.0 mi West 15.0 mph - N/A   Clear
3:33 AM 26.6 °F 14.3 °F 21.2 °F 80% 29.48 in 10.0 mi West 16.1 mph 20.7 mph N/A   Clear
3:53 AM 26.6 °F 13.8 °F 21.2 °F 80% 29.48 in 10.0 mi West 17.3 mph - N/A   Clear
4:14 AM 26.6 °F 15.2 °F 21.2 °F 80% 29.47 in 10.0 mi West 13.8 mph - N/A   Clear
4:33 AM 24.8 °F 14.0 °F 21.2 °F 86% 29.47 in 10.0 mi West 11.5 mph - N/A   Clear
4:53 AM 24.8 °F 14.0 °F 21.2 °F 86% 29.47 in 10.0 mi West 11.5 mph - N/A   Clear
5:13 AM 24.8 °F 14.0 °F 21.2 °F 86% 29.47 in 10.0 mi West 11.5 mph - N/A   Clear
5:33 AM 24.8 °F 14.6 °F 21.2 °F 86% 29.48 in 10.0 mi West 10.4 mph - N/A   Clear
5:53 AM 21.2 °F 11.7 °F 19.4 °F 93% 29.47 in 10.0 mi West 8.1 mph - N/A   Clear
6:13 AM 21.2 °F 11.7 °F 17.6 °F 86% 29.47 in 10.0 mi West 8.1 mph - N/A   Clear
6:33 AM 19.4 °F 10.4 °F 19.4 °F 100% 29.48 in 10.0 mi West 6.9 mph - N/A   Clear
6:53 AM 21.2 °F 12.6 °F 19.4 °F 93% 29.48 in 10.0 mi West 6.9 mph - N/A   Clear
7:14 AM 17.6 °F 7.3 °F 15.8 °F 93% 29.47 in 10.0 mi West 8.1 mph - N/A   Clear
7:33 AM 19.4 °F 11.5 °F 17.6 °F 93% 29.47 in 10.0 mi West 5.8 mph - N/A   Clear
7:53 AM 17.6 °F 7.3 °F 15.8 °F 93% 29.47 in 10.0 mi West 8.1 mph - N/A   Clear
8:14 AM 19.4 °F 9.5 °F 17.6 °F 93% 29.47 in 10.0 mi WNW 8.1 mph - N/A   Clear
8:33 AM 17.6 °F 7.3 °F 15.8 °F 93% 29.48 in 10.0 mi West 8.1 mph - N/A   Clear
8:53 AM 19.4 °F 8.6 °F 17.6 °F 93% 29.49 in 10.0 mi West 9.2 mph - N/A   Clear
9:14 AM 19.4 °F 10.4 °F 17.6 °F 93% 29.49 in 10.0 mi West 6.9 mph - N/A   Clear
9:33 AM 19.4 °F 11.5 °F 19.4 °F 100% 29.47 in 10.0 mi West 5.8 mph - N/A   Clear
9:53 AM 21.2 °F 13.6 °F 19.4 °F 93% 29.47 in 10.0 mi West 5.8 mph - N/A   Clear
10:14 AM 24.8 °F 17.9 °F 21.2 °F 86% 29.47 in 10.0 mi NW 5.8 mph - N/A   Clear
10:33 AM 24.8 °F - 21.2 °F 86% 29.46 in 10.0 mi Calm Calm - N/A   Clear
10:53 AM 24.8 °F 20.5 °F 21.2 °F 86% 29.46 in 10.0 mi West 3.5 mph - N/A   Clear
11:14 AM 24.8 °F - 21.2 °F 86% 29.45 in 10.0 mi Calm Calm - N/A   Clear
11:33 AM 24.8 °F 19.1 °F 21.2 °F 86% 29.46 in 10.0 mi West 4.6 mph - N/A   Clear
11:53 AM 26.6 °F 18.2 °F 21.2 °F 80% 29.47 in 10.0 mi West 8.1 mph - N/A   Clear
12:14 PM 26.6 °F 20.0 °F 21.2 °F 80% 29.44 in 10.0 mi West 5.8 mph - N/A   Clear
12:33 PM 26.6 °F 22.6 °F 21.2 °F 80% 29.43 in 10.0 mi WNW 3.5 mph - 0.01 in   Clear
12:53 PM 28.4 °F 23.3 °F 23.0 °F 80% 29.44 in 10.0 mi WNW 4.6 mph - 0.01 in   Clear
1:13 PM 28.4 °F 20.4 °F 23.0 °F 80% 29.45 in 10.0 mi WNW 8.1 mph - 0.01 in   Scattered Clouds
1:34 PM 28.4 °F 20.4 °F 23.0 °F 80% 29.46 in 10.0 mi NNW 8.1 mph - 0.02 in   Overcast
1:53 PM 26.6 °F 16.8 °F 23.0 °F 86% 29.46 in 10.0 mi NNW 10.4 mph - 0.03 in   Overcast
2:13 PM 26.6 °F 17.5 °F 24.8 °F 93% 29.47 in 10.0 mi NNW 9.2 mph - N/A   Overcast
2:33 PM 26.6 °F 19.1 °F 23.0 °F 86% 29.48 in 10.0 mi NW 6.9 mph - N/A   Overcast
2:53 PM 24.8 °F 15.3 °F 23.0 °F 93% 29.48 in 10.0 mi NW 9.2 mph - N/A   Overcast
3:13 PM 26.6 °F 16.8 °F 24.8 °F 93% 29.50 in 10.0 mi NW 10.4 mph - N/A   Overcast
3:33 PM 26.6 °F 16.8 °F 23.0 °F 86% 29.51 in 10.0 mi NW 10.4 mph - N/A   Overcast
3:53 PM 26.6 °F 18.2 °F 24.8 °F 93% 29.52 in 10.0 mi NW 8.1 mph - N/A   Overcast
4:13 PM 26.6 °F 18.2 °F 24.8 °F 93% 29.53 in 10.0 mi NW 8.1 mph - N/A   Overcast
4:33 PM 26.6 °F 19.1 °F 23.0 °F 86% 29.54 in 10.0 mi NW 6.9 mph - N/A   Overcast
4:54 PM 26.6 °F 20.0 °F 23.0 °F 86% 29.55 in 10.0 mi NW 5.8 mph - 0.01 in   Overcast
5:13 PM 26.6 °F 19.1 °F 23.0 °F 86% 29.56 in 10.0 mi NW 6.9 mph - N/A   Overcast
5:33 PM 26.6 °F 21.2 °F 24.8 °F 93% 29.57 in 10.0 mi NNW 4.6 mph - N/A   Overcast
5:54 PM 26.6 °F 21.2 °F 23.0 °F 86% 29.58 in 10.0 mi NNW 4.6 mph - N/A   Overcast
6:13 PM 26.6 °F 20.0 °F 23.0 °F 86% 29.59 in 10.0 mi NNW 5.8 mph - N/A   Overcast
6:33 PM 26.6 °F 21.2 °F 23.0 °F 86% 29.59 in 10.0 mi NNW 4.6 mph - N/A   Overcast
6:54 PM 26.6 °F 22.6 °F 23.0 °F 86% 29.59 in 10.0 mi NNW 3.5 mph - N/A   Overcast
7:13 PM 24.8 °F 19.1 °F 23.0 °F 93% 29.60 in 10.0 mi NNW 4.6 mph - 0.01 in   Overcast
7:33 PM 26.6 °F 20.0 °F 23.0 °F 86% 29.61 in 10.0 mi NW 5.8 mph - 0.01 in   Overcast
7:54 PM 24.8 °F 17.9 °F 23.0 °F 93% 29.62 in 10.0 mi NW 5.8 mph - 0.01 in   Overcast
8:13 PM 26.6 °F 21.2 °F 23.0 °F 86% 29.63 in 10.0 mi WNW 4.6 mph - 0.01 in   Overcast
8:33 PM 24.8 °F 16.1 °F 23.0 °F 93% 29.63 in 10.0 mi WNW 8.1 mph - 0.01 in   Overcast
8:53 PM 24.8 °F 16.9 °F 21.2 °F 86% 29.63 in 10.0 mi West 6.9 mph - 0.01 in   Overcast
9:13 PM 24.8 °F 16.1 °F 21.2 °F 86% 29.64 in 10.0 mi West 8.1 mph - N/A   Overcast
9:34 PM 24.8 °F 14.6 °F 21.2 °F 86% 29.64 in 10.0 mi West 10.4 mph - N/A   Overcast
9:53 PM 23.0 °F 13.9 °F 21.2 °F 93% 29.64 in 10.0 mi West 8.1 mph - N/A   Overcast
10:13 PM 23.0 °F 13.1 °F 21.2 °F 93% 29.65 in 10.0 mi West 9.2 mph - N/A   Overcast
10:34 PM 23.0 °F 14.7 °F 21.2 °F 93% 29.66 in 10.0 mi West 6.9 mph - N/A   Overcast
10:53 PM 23.0 °F 13.9 °F 21.2 °F 93% 29.67 in 7.0 mi West 8.1 mph - N/A   Overcast
11:13 PM 23.0 °F 12.4 °F 23.0 °F 100% 29.68 in 5.0 mi West 10.4 mph - N/A   Overcast
11:33 PM 23.0 °F 11.7 °F 23.0 °F 100% 29.68 in 7.0 mi West 11.5 mph - N/A   Overcast
11:54 PM 23.0 °F 13.1 °F 23.0 °F 100% 29.68 in 4.0 mi West 9.2 mph - N/A Snow Light Snow